Tracking 17855 objects as of 26-September-2016
HD Live streaming from Space Station
objects crossing your sky now

INTELSAT 605

Track INTELSAT 605 now!
INTELSAT 605 is classified as:


NORAD ID: 21653
Int'l Code: 1991-055A
Perigee: 36,037.1 km
Apogee: 36,083.6 km
Inclination: 9.8 °
Period: 1,449.7 minutes
Semi major axis: 42431 km
RCS: 0.754 m2 (medium)
Launch date: August 14, 1991
Source: International Telecommunications Satellite Organization (ITSO)
Launch site: FRENCH GUIANA (FRGUI)

Inclined orbit; 64 C-band, 24 Ku-band; Broadcasting, business services, direct-to-home TV broadcasting, telecommunications, VSAT networks; Atlantic Ocean region.
Your satellite tracking list
Your tracking list is empty





NASA's NSSDC Master Catalog

Two Line Element Set (TLE):
1 21653U 91055A   16269.14070869 -.00000289  00000-0  00000+0 0  9995
2 21653   9.7611  43.3120 0005471 176.1214 165.1719  0.99328200 91682
Source of the keplerian elements: AFSPC

N2YO: 493